Saint Bonnet de Bellac- Haute Vienne - France
Donnes mto: mardi, 08/05/2012
Date Horaire Temp. E. Hum. E. P.atmo. Pluie Vent Direction Direction Ensoleilleme Solaire P. de rose Temp au vent Rafales
08/05/2012 00:00 15,4 C 60 % 1012,9 hPa 0,0 mm 2,2 km/h (1 Bft) S-SE 157 0 min 0 W/m 7,7 C 15,4 C 5,8 km/h (2 Bft)
08/05/2012 00:10 15,4 C 60 % 1012,9 hPa 0,0 mm 4,3 km/h (1 Bft) S-SE 157 0 min 0 W/m 7,7 C 15,4 C 7,9 km/h (2 Bft)
08/05/2012 00:20 15,3 C 60 % 1012,8 hPa 0,0 mm 5,8 km/h (2 Bft) S-SE 157 0 min 0 W/m 7,6 C 15,3 C 8,6 km/h (2 Bft)
08/05/2012 00:30 15,4 C 60 % 1012,9 hPa 0,0 mm 3,6 km/h (1 Bft) S 180 0 min 0 W/m 7,7 C 15,4 C 6,5 km/h (2 Bft)
08/05/2012 00:40 15,4 C 60 % 1012,8 hPa 0,0 mm 2,9 km/h (1 Bft) S-SE 157 0 min 0 W/m 7,7 C 15,4 C 2,9 km/h (1 Bft)
08/05/2012 00:50 15,4 C 61 % 1012,8 hPa 0,0 mm 5,4 km/h (2 Bft) S 180 0 min 0 W/m 7,9 C 15,4 C 7,6 km/h (2 Bft)
08/05/2012 01:00 15,4 C 60 % 1012,7 hPa 0,0 mm 2,2 km/h (1 Bft) S 180 0 min 0 W/m 7,7 C 15,4 C 2,2 km/h (1 Bft)
08/05/2012 01:10 15,4 C 60 % 1012,7 hPa 0,0 mm 3,2 km/h (1 Bft) S 180 0 min 0 W/m 7,7 C 15,4 C 6,5 km/h (2 Bft)
08/05/2012 01:20 15,4 C 61 % 1012,6 hPa 0,0 mm 1,4 km/h (1 Bft) S-SE 157 0 min 0 W/m 7,9 C 15,4 C 4,0 km/h (1 Bft)
08/05/2012 01:30 15,4 C 61 % 1012,5 hPa 0,0 mm 5,0 km/h (1 Bft) S-SE 157 0 min 0 W/m 7,9 C 15,4 C 7,6 km/h (2 Bft)
08/05/2012 01:40 15,3 C 61 % 1012,4 hPa 0,0 mm 1,1 km/h (1 Bft) S 180 0 min 0 W/m 7,8 C 15,3 C 3,2 km/h (1 Bft)
08/05/2012 01:50 15,3 C 62 % 1012,4 hPa 0,0 mm 1,4 km/h (1 Bft) S-SE 157 0 min 0 W/m 8,1 C 15,3 C 3,6 km/h (1 Bft)
08/05/2012 02:00 15,2 C 62 % 1012,3 hPa 0,0 mm 4,7 km/h (1 Bft) S-SE 157 0 min 0 W/m 8,0 C 15,2 C 8,6 km/h (2 Bft)
08/05/2012 02:10 15,1 C 62 % 1012,0 hPa 0,0 mm 3,6 km/h (1 Bft) S 180 0 min 0 W/m 7,9 C 15,1 C 9,0 km/h (2 Bft)
08/05/2012 02:20 15,1 C 63 % 1011,8 hPa 0,0 mm 2,2 km/h (1 Bft) S-SE 157 0 min 0 W/m 8,1 C 15,1 C 6,1 km/h (2 Bft)
08/05/2012 02:30 14,9 C 63 % 1011,8 hPa 0,0 mm 3,2 km/h (1 Bft) S-SO 202 0 min 0 W/m 7,9 C 14,9 C 3,6 km/h (1 Bft)
08/05/2012 02:40 14,9 C 64 % 1011,7 hPa 0,0 mm 0,7 km/h (0 Bft) SE 135 0 min 0 W/m 8,2 C 14,9 C 4,0 km/h (1 Bft)
08/05/2012 02:50 14,8 C 64 % 1011,6 hPa 0,0 mm 2,5 km/h (1 Bft) S-SE 157 0 min 0 W/m 8,1 C 14,8 C 2,5 km/h (1 Bft)
08/05/2012 03:02 14,8 C 65 % 1011,5 hPa 0,0 mm 4,3 km/h (1 Bft) S 180 0 min 0 W/m 8,3 C 14,8 C 7,2 km/h (2 Bft)
08/05/2012 03:10 14,6 C 66 % 1011,5 hPa 0,0 mm 4,3 km/h (1 Bft) S-SE 157 0 min 0 W/m 8,3 C 14,6 C 7,6 km/h (2 Bft)
08/05/2012 03:20 14,6 C 65 % 1011,3 hPa 0,0 mm 5,0 km/h (1 Bft) S-SE 157 0 min 0 W/m 8,1 C 14,6 C 9,0 km/h (2 Bft)
08/05/2012 03:30 14,6 C 66 % 1011,2 hPa 0,0 mm 4,0 km/h (1 Bft) S 180 0 min 0 W/m 8,3 C 14,6 C 7,9 km/h (2 Bft)
08/05/2012 03:40 14,5 C 66 % 1011,2 hPa 0,0 mm 2,2 km/h (1 Bft) S 180 0 min 0 W/m 8,2 C 14,5 C 4,0 km/h (1 Bft)
08/05/2012 03:50 14,4 C 69 % 1011,2 hPa 0,0 mm 13,3 km/h (3 Bft) S-SE 157 0 min 0 W/m 8,8 C 14,4 C 17,3 km/h (3 Bft)
08/05/2012 04:00 14,2 C 69 % 1010,9 hPa 0,0 mm 4,3 km/h (1 Bft) S-SE 157 0 min 0 W/m 8,6 C 14,2 C 8,6 km/h (2 Bft)
08/05/2012 04:10 13,9 C 70 % 1011,0 hPa 0,0 mm 3,2 km/h (1 Bft) S-SO 202 0 min 0 W/m 8,5 C 13,9 C 3,2 km/h (1 Bft)
08/05/2012 04:20 13,6 C 71 % 1011,1 hPa 0,0 mm 2,2 km/h (1 Bft) S-SE 157 0 min 0 W/m 8,4 C 13,6 C 4,0 km/h (1 Bft)
08/05/2012 04:30 13,4 C 72 % 1011,0 hPa 0,0 mm 4,0 km/h (1 Bft) S-SE 157 0 min 0 W/m 8,5 C 13,4 C 6,8 km/h (2 Bft)
08/05/2012 04:40 13,3 C 72 % 1010,8 hPa 0,0 mm 0,7 km/h (0 Bft) S-SO 202 0 min 0 W/m 8,4 C 13,3 C 4,0 km/h (1 Bft)
08/05/2012 04:50 13,2 C 72 % 1010,8 hPa 0,0 mm 1,4 km/h (1 Bft) SE 135 0 min 0 W/m 8,3 C 13,2 C 4,3 km/h (1 Bft)
08/05/2012 05:00 13,2 C 71 % 1010,7 hPa 0,0 mm 0,0 km/h (0 Bft) S-SE 157 0 min 0 W/m 8,1 C 13,2 C 0,0 km/h (0 Bft)
08/05/2012 05:10 13,3 C 71 % 1010,6 hPa 0,0 mm 4,3 km/h (1 Bft) S-SE 157 0 min 0 W/m 8,2 C 13,3 C 6,8 km/h (2 Bft)
08/05/2012 05:20 13,5 C 70 % 1010,6 hPa 0,0 mm 2,5 km/h (1 Bft) SE 135 0 min 0 W/m 8,1 C 13,5 C 2,9 km/h (1 Bft)
08/05/2012 05:30 13,8 C 69 % 1010,5 hPa 0,0 mm 5,4 km/h (2 Bft) S 180 0 min 0 W/m 8,2 C 13,8 C 11,5 km/h (2 Bft)
08/05/2012 05:40 14,1 C 68 % 1010,5 hPa 0,0 mm 5,0 km/h (1 Bft) S-SE 157 0 min 0 W/m 8,3 C 14,1 C 8,6 km/h (2 Bft)
08/05/2012 05:50 14,3 C 67 % 1010,5 hPa 0,0 mm 4,3 km/h (1 Bft) S 180 0 min 0 W/m 8,3 C 14,3 C 4,3 km/h (1 Bft)
08/05/2012 06:00 14,4 C 68 % 1010,4 hPa 0,0 mm 3,6 km/h (1 Bft) SO 225 0 min 0 W/m 8,6 C 14,4 C 6,1 km/h (2 Bft)
08/05/2012 06:10 14,4 C 70 % 1010,5 hPa 0,0 mm 0,4 km/h (0 Bft) S 180 0 min 0 W/m 9,0 C 14,4 C 3,6 km/h (1 Bft)
08/05/2012 06:20 14,3 C 70 % 1010,5 hPa 0,0 mm 1,4 km/h (1 Bft) S-SO 202 0 min 0 W/m 8,9 C 14,3 C 3,6 km/h (1 Bft)
08/05/2012 06:30 14,1 C 71 % 1010,6 hPa 0,0 mm 1,4 km/h (1 Bft) O-SO 247 0 min 0 W/m 8,9 C 14,1 C 9,4 km/h (2 Bft)
08/05/2012 06:40 13,8 C 73 % 1010,7 hPa 0,0 mm 3,2 km/h (1 Bft) S-SE 157 0 min 0 W/m 9,0 C 13,8 C 4,3 km/h (1 Bft)
08/05/2012 06:50 13,8 C 74 % 1010,7 hPa 0,0 mm 4,3 km/h (1 Bft) S-SO 202 2 min 0 W/m 9,2 C 13,8 C 4,3 km/h (1 Bft)
08/05/2012 07:00 13,7 C 74 % 1010,8 hPa 0,0 mm 4,0 km/h (1 Bft) S-SO 202 2 min 0 W/m 9,2 C 13,7 C 4,0 km/h (1 Bft)
08/05/2012 07:10 13,6 C 76 % 1010,7 hPa 0,1 mm 2,9 km/h (1 Bft) S-SO 202 2 min 0 W/m 9,4 C 13,6 C 4,3 km/h (1 Bft)
08/05/2012 07:20 13,5 C 79 % 1010,9 hPa 0,0 mm 7,6 km/h (2 Bft) SO 225 2 min 0 W/m 9,9 C 13,5 C 11,9 km/h (2 Bft)
08/05/2012 07:30 13,3 C 82 % 1011,1 hPa 0,3 mm 6,1 km/h (2 Bft) SO 225 2 min 0 W/m 10,3 C 13,3 C 6,8 km/h (2 Bft)
08/05/2012 07:40 12,9 C 84 % 1011,2 hPa 0,1 mm 2,2 km/h (1 Bft) S-SO 202 2 min 0 W/m 10,3 C 12,9 C 2,2 km/h (1 Bft)
08/05/2012 07:50 12,8 C 85 % 1011,4 hPa 0,1 mm 2,9 km/h (1 Bft) SO 225 2 min 0 W/m 10,3 C 12,8 C 4,3 km/h (1 Bft)
08/05/2012 08:00 12,6 C 86 % 1011,3 hPa 0,2 mm 1,4 km/h (1 Bft) SO 225 2 min 0 W/m 10,3 C 12,6 C 4,3 km/h (1 Bft)
08/05/2012 08:10 12,4 C 87 % 1011,2 hPa 0,1 mm 2,2 km/h (1 Bft) S-SO 202 2 min 0 W/m 10,3 C 12,4 C 6,8 km/h (2 Bft)
08/05/2012 08:20 12,4 C 88 % 1011,2 hPa 0,1 mm 2,5 km/h (1 Bft) S 180 2 min 0 W/m 10,5 C 12,4 C 4,0 km/h (1 Bft)
08/05/2012 08:30 12,4 C 88 % 1011,2 hPa 0,0 mm 3,2 km/h (1 Bft) S-SO 202 2 min 0 W/m 10,5 C 12,4 C 6,1 km/h (2 Bft)
08/05/2012 08:40 12,4 C 89 % 1011,3 hPa 0,0 mm 3,2 km/h (1 Bft) S 180 2 min 0 W/m 10,6 C 12,4 C 6,5 km/h (2 Bft)
08/05/2012 08:50 12,4 C 89 % 1011,2 hPa 0,0 mm 6,1 km/h (2 Bft) S-SO 202 2 min 0 W/m 10,6 C 12,4 C 12,2 km/h (2 Bft)
08/05/2012 09:00 12,4 C 90 % 1011,2 hPa 0,0 mm 7,2 km/h (2 Bft) S-SE 157 2 min 0 W/m 10,8 C 12,4 C 10,4 km/h (2 Bft)
08/05/2012 09:10 12,5 C 90 % 1011,5 hPa 0,1 mm 6,8 km/h (2 Bft) S-SO 202 2 min 0 W/m 10,9 C 12,5 C 7,2 km/h (2 Bft)
08/05/2012 09:20 12,6 C 90 % 1011,4 hPa 0,1 mm 4,7 km/h (1 Bft) S-SO 202 2 min 0 W/m 11,0 C 12,6 C 8,3 km/h (2 Bft)
08/05/2012 09:30 12,5 C 90 % 1011,5 hPa 0,0 mm 5,0 km/h (1 Bft) S-SO 202 2 min 0 W/m 10,9 C 12,5 C 6,5 km/h (2 Bft)
08/05/2012 09:40 12,5 C 91 % 1011,6 hPa 0,1 mm 9,7 km/h (2 Bft) S 180 2 min 0 W/m 11,1 C 12,5 C 11,5 km/h (2 Bft)
08/05/2012 09:50 12,5 C 91 % 1011,7 hPa 0,0 mm 4,7 km/h (1 Bft) S-SO 202 2 min 0 W/m 11,1 C 12,5 C 9,7 km/h (2 Bft)
08/05/2012 10:00 12,6 C 91 % 1011,5 hPa 0,0 mm 5,4 km/h (2 Bft) S-SO 202 2 min 0 W/m 11,2 C 12,6 C 9,4 km/h (2 Bft)
08/05/2012 10:10 12,6 C 92 % 1011,6 hPa 0,0 mm 6,8 km/h (2 Bft) S 180 2 min 0 W/m 11,3 C 12,6 C 10,1 km/h (2 Bft)
08/05/2012 10:20 12,6 C 92 % 1011,5 hPa 0,0 mm 5,8 km/h (2 Bft) S-SO 202 2 min 0 W/m 11,3 C 12,6 C 9,0 km/h (2 Bft)
08/05/2012 10:30 12,8 C 92 % 1011,5 hPa 0,1 mm 7,2 km/h (2 Bft) S-SO 202 2 min 0 W/m 11,5 C 12,8 C 11,5 km/h (2 Bft)
08/05/2012 10:40 12,9 C 92 % 1011,4 hPa 0,0 mm 9,4 km/h (2 Bft) S-SO 202 2 min 0 W/m 11,6 C 12,9 C 10,4 km/h (2 Bft)
08/05/2012 10:50 13,3 C 92 % 1011,5 hPa 0,0 mm 4,7 km/h (1 Bft) S 180 2 min 0 W/m 12,0 C 13,3 C 7,6 km/h (2 Bft)
08/05/2012 11:00 13,5 C 92 % 1011,5 hPa 0,0 mm 2,2 km/h (1 Bft) S-SO 202 2 min 0 W/m 12,2 C 13,5 C 6,1 km/h (2 Bft)
08/05/2012 11:10 13,8 C 93 % 1011,5 hPa 0,1 mm 4,3 km/h (1 Bft) S-SO 202 2 min 0 W/m 12,7 C 13,8 C 5,8 km/h (2 Bft)
08/05/2012 11:20 14,0 C 93 % 1011,5 hPa 0,0 mm 5,0 km/h (1 Bft) S 180 2 min 0 W/m 12,9 C 14,0 C 7,9 km/h (2 Bft)
08/05/2012 11:30 14,0 C 92 % 1011,7 hPa 0,1 mm 4,0 km/h (1 Bft) S-SO 202 2 min 0 W/m 12,7 C 14,0 C 8,3 km/h (2 Bft)
08/05/2012 11:40 13,9 C 91 % 1011,7 hPa 0,1 mm 5,8 km/h (2 Bft) S-SO 202 2 min 0 W/m 12,5 C 13,9 C 8,6 km/h (2 Bft)
08/05/2012 11:50 13,9 C 92 % 1011,7 hPa 0,0 mm 5,4 km/h (2 Bft) S-SO 202 2 min 0 W/m 12,6 C 13,9 C 10,4 km/h (2 Bft)
08/05/2012 12:00 13,9 C 92 % 1011,6 hPa 0,2 mm 3,6 km/h (1 Bft) S 180 2 min 0 W/m 12,6 C 13,9 C 7,2 km/h (2 Bft)
08/05/2012 12:10 14,1 C 92 % 1011,6 hPa 0,0 mm 4,3 km/h (1 Bft) S 180 2 min 0 W/m 12,8 C 14,1 C 4,3 km/h (1 Bft)
08/05/2012 12:20 14,0 C 92 % 1011,6 hPa 0,2 mm 2,2 km/h (1 Bft) S-SO 202 2 min 0 W/m 12,7 C 14,0 C 3,6 km/h (1 Bft)
08/05/2012 12:30 14,0 C 93 % 1011,7 hPa 0,2 mm 5,8 km/h (2 Bft) S 180 2 min 0 W/m 12,9 C 14,0 C 9,7 km/h (2 Bft)
08/05/2012 12:40 14,1 C 93 % 1011,8 hPa 0,2 mm 5,4 km/h (2 Bft) S-SE 157 2 min 0 W/m 13,0 C 14,1 C 6,5 km/h (2 Bft)
08/05/2012 12:50 14,1 C 93 % 1011,8 hPa 0,0 mm 5,4 km/h (2 Bft) S-SO 202 2 min 0 W/m 13,0 C 14,1 C 6,1 km/h (2 Bft)
08/05/2012 13:00 14,2 C 93 % 1011,7 hPa 0,1 mm 5,0 km/h (1 Bft) SO 225 2 min 0 W/m 13,1 C 14,2 C 9,0 km/h (2 Bft)
08/05/2012 13:10 14,3 C 93 % 1011,7 hPa 0,1 mm 5,0 km/h (1 Bft) S-SO 202 2 min 0 W/m 13,2 C 14,3 C 9,0 km/h (2 Bft)
08/05/2012 13:20 14,4 C 94 % 1011,7 hPa 0,0 mm 10,8 km/h (2 Bft) S-SO 202 2 min 0 W/m 13,4 C 14,4 C 14,8 km/h (3 Bft)
08/05/2012 13:30 14,6 C 94 % 1011,7 hPa 0,1 mm 3,6 km/h (1 Bft) O-SO 247 2 min 0 W/m 13,6 C 14,6 C 6,1 km/h (2 Bft)
08/05/2012 13:40 14,6 C 93 % 1011,7 hPa 0,1 mm 5,4 km/h (2 Bft) SO 225 2 min 0 W/m 13,5 C 14,6 C 7,9 km/h (2 Bft)
08/05/2012 13:50 14,8 C 94 % 1011,6 hPa 0,0 mm 10,4 km/h (2 Bft) SO 225 2 min 0 W/m 13,8 C 14,8 C 15,1 km/h (3 Bft)
08/05/2012 14:00 14,6 C 93 % 1011,8 hPa 0,0 mm 6,8 km/h (2 Bft) S-SO 202 2 min 0 W/m 13,5 C 14,6 C 9,4 km/h (2 Bft)
08/05/2012 14:10 14,7 C 93 % 1011,8 hPa 0,1 mm 9,0 km/h (2 Bft) SO 225 2 min 0 W/m 13,6 C 14,7 C 13,3 km/h (3 Bft)
08/05/2012 14:20 14,8 C 93 % 1011,8 hPa 0,0 mm 7,6 km/h (2 Bft) SO 225 2 min 0 W/m 13,7 C 14,8 C 10,4 km/h (2 Bft)
08/05/2012 14:30 14,8 C 93 % 1011,9 hPa 0,0 mm 9,0 km/h (2 Bft) S 180 2 min 0 W/m 13,7 C 14,8 C 16,6 km/h (3 Bft)
08/05/2012 14:40 15,0 C 93 % 1011,9 hPa 0,0 mm 7,6 km/h (2 Bft) SO 225 2 min 0 W/m 13,9 C 15,0 C 13,3 km/h (3 Bft)
08/05/2012 14:50 15,1 C 93 % 1012,1 hPa 0,0 mm 10,4 km/h (2 Bft) S-SO 202 2 min 0 W/m 14,0 C 15,1 C 15,5 km/h (3 Bft)
08/05/2012 15:00 15,1 C 92 % 1012,0 hPa 0,0 mm 7,9 km/h (2 Bft) SO 225 2 min 0 W/m 13,8 C 15,1 C 9,4 km/h (2 Bft)
08/05/2012 15:10 15,3 C 92 % 1011,9 hPa 0,0 mm 14,0 km/h (3 Bft) SO 225 2 min 0 W/m 14,0 C 15,3 C 25,9 km/h (4 Bft)
08/05/2012 15:20 15,4 C 92 % 1012,0 hPa 0,0 mm 7,2 km/h (2 Bft) S-SO 202 2 min 0 W/m 14,1 C 15,4 C 9,0 km/h (2 Bft)
08/05/2012 15:30 15,3 C 92 % 1012,0 hPa 0,1 mm 5,4 km/h (2 Bft) SO 225 2 min 0 W/m 14,0 C 15,3 C 10,4 km/h (2 Bft)
08/05/2012 15:40 15,3 C 92 % 1012,0 hPa 0,1 mm 3,6 km/h (1 Bft) S-SO 202 2 min 0 W/m 14,0 C 15,3 C 7,6 km/h (2 Bft)
08/05/2012 15:50 15,3 C 93 % 1011,9 hPa 0,0 mm 5,8 km/h (2 Bft) SO 225 2 min 0 W/m 14,2 C 15,3 C 10,8 km/h (2 Bft)
08/05/2012 16:00 15,5 C 93 % 1012,1 hPa 0,0 mm 7,9 km/h (2 Bft) S-SO 202 2 min 0 W/m 14,4 C 15,5 C 11,9 km/h (2 Bft)
08/05/2012 16:10 15,6 C 92 % 1012,0 hPa 0,0 mm 7,9 km/h (2 Bft) O-SO 247 2 min 0 W/m 14,3 C 15,6 C 10,4 km/h (2 Bft)
08/05/2012 16:20 15,5 C 93 % 1011,8 hPa 0,1 mm 9,7 km/h (2 Bft) SO 225 2 min 0 W/m 14,4 C 15,5 C 14,4 km/h (3 Bft)
08/05/2012 16:30 15,5 C 93 % 1012,0 hPa 0,0 mm 6,8 km/h (2 Bft) SO 225 2 min 0 W/m 14,4 C 15,5 C 8,3 km/h (2 Bft)
08/05/2012 16:40 15,5 C 93 % 1012,0 hPa 0,1 mm 9,7 km/h (2 Bft) S-SO 202 2 min 0 W/m 14,4 C 15,5 C 16,2 km/h (3 Bft)
08/05/2012 16:50 15,8 C 93 % 1012,1 hPa 0,0 mm 3,6 km/h (1 Bft) S-SO 202 2 min 0 W/m 14,7 C 15,8 C 9,0 km/h (2 Bft)
08/05/2012 17:00 15,8 C 92 % 1012,0 hPa 0,0 mm 8,6 km/h (2 Bft) SO 225 2 min 0 W/m 14,5 C 15,8 C 18,7 km/h (3 Bft)
08/05/2012 17:10 15,6 C 92 % 1012,1 hPa 0,0 mm 11,9 km/h (2 Bft) SO 225 2 min 0 W/m 14,3 C 15,6 C 14,4 km/h (3 Bft)
08/05/2012 17:20 15,7 C 92 % 1012,1 hPa 0,0 mm 7,9 km/h (2 Bft) SO 225 2 min 0 W/m 14,4 C 15,7 C 14,0 km/h (3 Bft)
08/05/2012 17:30 15,9 C 92 % 1012,1 hPa 0,0 mm 4,0 km/h (1 Bft) S-SO 202 2 min 0 W/m 14,6 C 15,9 C 9,4 km/h (2 Bft)
08/05/2012 17:40 15,9 C 92 % 1012,2 hPa 0,0 mm 5,4 km/h (2 Bft) O-SO 247 2 min 0 W/m 14,6 C 15,9 C 9,0 km/h (2 Bft)
08/05/2012 17:50 15,9 C 91 % 1012,2 hPa 0,0 mm 8,6 km/h (2 Bft) S-SO 202 2 min 0 W/m 14,4 C 15,9 C 12,6 km/h (3 Bft)
08/05/2012 18:00 15,9 C 91 % 1012,2 hPa 0,0 mm 7,9 km/h (2 Bft) O-SO 247 2 min 0 W/m 14,4 C 15,9 C 12,2 km/h (2 Bft)
08/05/2012 18:10 16,0 C 91 % 1012,2 hPa 0,0 mm 12,6 km/h (3 Bft) SO 225 2 min 0 W/m 14,5 C 16,0 C 17,6 km/h (3 Bft)
08/05/2012 18:20 16,0 C 91 % 1012,4 hPa 0,0 mm 7,6 km/h (2 Bft) O-SO 247 2 min 0 W/m 14,5 C 16,0 C 13,7 km/h (3 Bft)
08/05/2012 18:30 16,0 C 91 % 1012,5 hPa 0,0 mm 6,8 km/h (2 Bft) S-SO 202 2 min 0 W/m 14,5 C 16,0 C 7,6 km/h (2 Bft)
08/05/2012 18:40 16,0 C 91 % 1012,5 hPa 0,0 mm 6,5 km/h (2 Bft) O 270 2 min 0 W/m 14,5 C 16,0 C 12,2 km/h (2 Bft)
08/05/2012 18:50 16,2 C 91 % 1012,4 hPa 0,0 mm 3,6 km/h (1 Bft) S-SO 202 2 min 0 W/m 14,7 C 16,2 C 4,3 km/h (1 Bft)
08/05/2012 19:00 16,2 C 90 % 1012,3 hPa 0,0 mm 5,4 km/h (2 Bft) O-SO 247 2 min 0 W/m 14,6 C 16,2 C 6,8 km/h (2 Bft)
08/05/2012 19:10 16,2 C 90 % 1012,2 hPa 0,0 mm 4,7 km/h (1 Bft) SO 225 2 min 0 W/m 14,6 C 16,2 C 6,1 km/h (2 Bft)
08/05/2012 19:20 16,2 C 90 % 1012,3 hPa 0,0 mm 2,9 km/h (1 Bft) SO 225 2 min 0 W/m 14,6 C 16,2 C 6,1 km/h (2 Bft)
08/05/2012 19:30 16,2 C 90 % 1012,2 hPa 0,0 mm 2,2 km/h (1 Bft) SO 225 2 min 0 W/m 14,6 C 16,2 C 6,8 km/h (2 Bft)
08/05/2012 19:40 16,2 C 91 % 1012,2 hPa 0,0 mm 3,2 km/h (1 Bft) SO 225 2 min 0 W/m 14,7 C 16,2 C 8,3 km/h (2 Bft)
08/05/2012 19:50 16,2 C 91 % 1012,3 hPa 0,0 mm 2,5 km/h (1 Bft) S-SO 202 2 min 0 W/m 14,7 C 16,2 C 4,3 km/h (1 Bft)
08/05/2012 20:00 16,1 C 90 % 1012,1 hPa 0,1 mm 2,5 km/h (1 Bft) SO 225 2 min 0 W/m 14,5 C 16,1 C 6,1 km/h (2 Bft)
08/05/2012 20:10 16,1 C 90 % 1012,0 hPa 0,0 mm 5,0 km/h (1 Bft) SO 225 2 min 0 W/m 14,5 C 16,1 C 6,8 km/h (2 Bft)
08/05/2012 20:20 15,9 C 90 % 1012,2 hPa 0,0 mm 3,6 km/h (1 Bft) SO 225 2 min 0 W/m 14,3 C 15,9 C 3,6 km/h (1 Bft)
08/05/2012 20:30 15,9 C 90 % 1012,1 hPa 0,0 mm 2,5 km/h (1 Bft) SO 225 2 min 0 W/m 14,3 C 15,9 C 4,0 km/h (1 Bft)
08/05/2012 20:40 15,8 C 90 % 1012,3 hPa 0,0 mm 2,9 km/h (1 Bft) SO 225 2 min 0 W/m 14,2 C 15,8 C 7,2 km/h (2 Bft)
08/05/2012 20:50 15,8 C 91 % 1012,3 hPa 0,0 mm 2,2 km/h (1 Bft) SO 225 2 min 0 W/m 14,3 C 15,8 C 4,0 km/h (1 Bft)
08/05/2012 21:00 15,7 C 91 % 1012,4 hPa 0,0 mm 2,5 km/h (1 Bft) SO 225 2 min 0 W/m 14,2 C 15,7 C 6,8 km/h (2 Bft)
08/05/2012 21:10 15,6 C 91 % 1012,3 hPa 0,0 mm 3,2 km/h (1 Bft) SO 225 0 min 0 W/m 14,1 C 15,6 C 4,3 km/h (1 Bft)
08/05/2012 21:20 15,6 C 91 % 1012,5 hPa 0,0 mm 2,2 km/h (1 Bft) SO 225 0 min 0 W/m 14,1 C 15,6 C 4,3 km/h (1 Bft)
08/05/2012 21:30 15,5 C 91 % 1012,5 hPa 0,0 mm 3,2 km/h (1 Bft) SO 225 0 min 0 W/m 14,0 C 15,5 C 4,3 km/h (1 Bft)
08/05/2012 21:40 15,5 C 91 % 1012,5 hPa 0,0 mm 2,9 km/h (1 Bft) SO 225 0 min 0 W/m 14,0 C 15,5 C 4,3 km/h (1 Bft)
08/05/2012 21:50 15,4 C 91 % 1012,5 hPa 0,0 mm 0,7 km/h (0 Bft) SO 225 0 min 0 W/m 13,9 C 15,4 C 4,0 km/h (1 Bft)
08/05/2012 22:00 15,4 C 91 % 1012,8 hPa 0,0 mm 3,6 km/h (1 Bft) S-SO 202 0 min 0 W/m 13,9 C 15,4 C 6,1 km/h (2 Bft)
08/05/2012 22:10 15,4 C 91 % 1012,8 hPa 0,0 mm 2,2 km/h (1 Bft) SO 225 0 min 0 W/m 13,9 C 15,4 C 4,0 km/h (1 Bft)
08/05/2012 22:20 15,4 C 91 % 1012,8 hPa 0,0 mm 0,4 km/h (0 Bft) S-SO 202 0 min 0 W/m 13,9 C 15,4 C 3,2 km/h (1 Bft)
08/05/2012 22:30 15,4 C 91 % 1012,9 hPa 0,0 mm 2,2 km/h (1 Bft) S-SO 202 0 min 0 W/m 13,9 C 15,4 C 3,6 km/h (1 Bft)
08/05/2012 22:40 15,3 C 91 % 1012,9 hPa 0,0 mm 0,7 km/h (0 Bft) S 180 0 min 0 W/m 13,8 C 15,3 C 4,0 km/h (1 Bft)
08/05/2012 22:50 15,3 C 91 % 1013,0 hPa 0,0 mm 0,4 km/h (0 Bft) S-SO 202 0 min 0 W/m 13,8 C 15,3 C 3,2 km/h (1 Bft)
08/05/2012 23:00 15,2 C 91 % 1013,1 hPa 0,0 mm 1,8 km/h (1 Bft) S-SO 202 0 min 0 W/m 13,7 C 15,2 C 3,2 km/h (1 Bft)
08/05/2012 23:10 15,1 C 91 % 1013,1 hPa 0,0 mm 1,1 km/h (1 Bft) S-SO 202 0 min 0 W/m 13,6 C 15,1 C 1,4 km/h (1 Bft)
08/05/2012 23:20 15,1 C 91 % 1013,0 hPa 0,0 mm 2,2 km/h (1 Bft) S-SE 157 0 min 0 W/m 13,6 C 15,1 C 2,2 km/h (1 Bft)
08/05/2012 23:30 15,1 C 92 % 1012,9 hPa 0,0 mm 5,8 km/h (2 Bft) S 180 0 min 0 W/m 13,8 C 15,1 C 6,8 km/h (2 Bft)
08/05/2012 23:40 15,1 C 92 % 1012,7 hPa 0,0 mm 2,2 km/h (1 Bft) S 180 0 min 0 W/m 13,8 C 15,1 C 4,3 km/h (1 Bft)
08/05/2012 23:50 15,1 C 92 % 1012,9 hPa 0,0 mm 2,5 km/h (1 Bft) SO 225 0 min 0 W/m 13,8 C 15,1 C 4,3 km/h (1 Bft)
_ Min-Heure 09:00 01:10 06:00 - 05:00 - - - - 00:20 09:00 05:00
Minimum _ 12,4 C 60 % 1010,4 hPa - 0,0 km/h (0 Bft) - - - - 7,6 C 12,4 C 0,0 km/h (0 Bft)
_ Max-Heure 19:50 13:50 23:10 07:30 15:10 - - 21:00 23:50 19:50 19:50 15:10
Maximum _ 16,2 C 94 % 1013,1 hPa 0,3 mm 14,0 km/h
SO (3 Bft)
- - 2 min 0 W/m 14,7 C 16,2 C 25,9 km/h
SO (4 Bft)
Moyenne _ 14,6 C 84 % 1011,8 hPa #3,6 mm 4,6 km/h (1 Bft) S-SO - #2:52 h 0 W/m 11,7 C 14,6 C 7,6 km/h (2 Bft)
Saint Bonnet de Bellac- Haute Vienne - France